Home > Weather > San Juan > Past weeks

Flag for Puerto Rico Weather for the Past 2 Weeks in San Juan, Puerto Rico

Now
79 °F

Sunny.


Feels Like: 81 °F
Forecast: N/A
Wind: 5 mph from South

Location: Luis Munoz Marin

Current Time: Feb 7, 2016 at 7:59:29 PM

Latest Report: Feb 7, 2016 at 6:56 PM


Visibility: 10 mi

Pressure: 30.01 "Hg

Humidity: 69%

Dew point: 68 °F

Location of San JuanLocation

Historic Weather in San Juan — Graph

°F

San Juan Temperature Yesterday

Maximum temperature yesterday: 86 °F (at 1:56 PM)
Minimum temperature yesterday: 71 °F (at 3:56 AM)
Average temperature yesterday: 77 °F

High & Low Weather Summary for the Past Weeks

 TemperatureHumidityPressure
High86 °F (Jan 24, 1:56 PM)100% (Feb 7, 9:56 AM)30.19 "Hg (Feb 7, 9:56 AM)
Low68 °F (Feb 2, 11:56 PM)42% (Jan 29, 2:56 PM)29.91 "Hg (Feb 5, 3:56 AM)
Average78 °F74%30.03 "Hg
* Reported Jan 23 5:56 PM — Feb 7 5:56 PM, San Juan, Weather by CustomWeather, © 2016

Note: Actual official high and low records may vary slightly from our data, if they occured in-between our weather recording intervals... More about our weather records

Advertising

San Juan Weather History for the Previous 24 Hours

 ConditionsComfort  
Time TempWeatherWind HumidityBarometerVisibility
5:56 PM
Sun, Feb 7
81 °FPassing clouds.8 mph62%29.98 "Hg10 mi
4:56 PM83 °FPassing clouds.10 mph57%29.98 "Hg10 mi
3:56 PM84 °FPassing clouds.14 mph55%29.97 "Hg10 mi
2:56 PM84 °FScattered clouds.13 mph57%29.98 "Hg10 mi
1:56 PM84 °FScattered clouds.8 mph61%30.00 "Hg10 mi
12:56 PM82 °FScattered clouds.12 mph65%30.02 "Hg10 mi
11:56 AM80 °FBroken clouds.6 mph74%30.05 "Hg10 mi
10:56 AM78 °FScattered clouds.9 mph79%30.06 "Hg10 mi
9:56 AM76 °FBroken clouds.No wind100%30.08 "Hg10 mi
8:56 AM72 °FMostly cloudy.5 mph97%30.07 "Hg10 mi
7:56 AM71 °FLight rain. Partly sunny.7 mph96%30.04 "Hg7 mi
6:56 AM72 °FPartly cloudy.6 mph93%30.03 "Hg10 mi
5:56 AM72 °FPassing clouds.No wind91%30.01 "Hg10 mi
4:56 AM72 °FPartly cloudy.No wind87%30.00 "Hg10 mi
3:56 AM73 °FPassing clouds.No wind88%30.01 "Hg10 mi
2:56 AM73 °FPassing clouds.No wind90%30.02 "Hg10 mi
1:56 AM73 °FPassing clouds.No wind90%30.05 "Hg10 mi
12:56 AM73 °FPartly cloudy.No wind88%30.07 "Hg10 mi
11:56 PM
Sat, Feb 6
74 °FLight rain. Fog.No wind91%30.09 "Hg5 mi
10:56 PM75 °FRain. Overcast.7 mph82%30.09 "Hg6 mi
8:56 PM77 °FOvercast.9 mph71%30.07 "Hg10 mi
7:56 PM78 °FOvercast.6 mph69%30.06 "Hg10 mi
Weather by CustomWeather, © 2016

See weather overviewHow to use our weather pages